Date String (YYYY-MM-DD hh:mm:ss) UTC,Instrument flags,absolute air pressure of the measurement (hPa),sample flow rate (lpm),inlet stack bypass flow (lpm),air temperature of the measurement (°C),ambient temperature measured by the external sensor (°C),aerosol sample conditioner tube jacket temperature (°C),OPC LED temperature (°C),internal box temperature (°C),relative humidity of the measurement (%),span deviation,mass concentration of particles derived from Lorenz-Mie calculation of OPC scattering (μg/m³),mass concentration of particles derived from Lorenz-Mie calculation of OPC scattering (μg/m³),mass concentration of particles derived from Lorenz-Mie calculation of OPC scattering (μg/m³)
DateTimeUTC,F1_M11,P_M11,Q1_M11,Q2_M11,T1_M11,T2_M11,T3_M11,T4_M11,T5_M11,U1_M11,ZSPAN_M11,X2_M11,X0_M11,X1_M11
2024-02-19 19:00:00,SystemResetWarning,0827.3,5.00,000.00,021.4,020.9,000.0,029.6,023.1,13.4,0000.0,0002.34,0005.46,0001.77
2024-02-19 19:01:00,SystemResetWarning,0827.3,5.00,000.00,021.4,020.9,000.0,029.6,023.2,13.4,0000.0,0002.25,0005.27,0001.74
2024-02-19 19:02:00,SystemResetWarning,0827.3,5.00,000.00,021.4,020.9,000.0,029.6,023.2,13.7,0000.0,0002.20,0005.15,0001.70
2024-02-19 19:03:00,SystemResetWarning,0827.3,5.01,000.00,021.4,020.9,000.0,029.6,023.2,13.9,0000.0,0002.14,0007.33,0001.67
2024-02-19 19:04:00,SystemResetWarning,0827.3,5.00,000.00,021.4,020.9,000.0,029.7,023.2,14.4,0000.0,0002.14,0008.09,0001.62
2024-02-19 19:05:00,SystemResetWarning,0827.4,5.00,000.00,021.4,021.0,000.0,029.7,023.2,14.3,0000.0,0002.13,0007.74,0001.61
2024-02-19 19:06:00,SystemResetWarning,0827.3,4.99,000.00,021.4,021.0,000.0,029.7,023.2,14.2,0000.0,0002.12,0007.75,0001.60
2024-02-19 19:07:00,SystemResetWarning,0827.4,5.01,000.00,021.4,021.0,000.0,029.7,023.2,14.3,0000.0,0002.16,0007.83,0001.60
2024-02-19 19:08:00,SystemResetWarning,0827.4,5.00,000.00,021.5,021.0,000.0,029.7,023.2,13.8,0000.0,0002.15,0007.82,0001.59
2024-02-19 19:09:00,SystemResetWarning,0827.4,5.00,000.00,021.5,021.0,000.0,029.7,023.3,14.1,0000.0,0002.18,0007.89,0001.60
2024-02-19 19:10:00,SystemResetWarning,0827.4,5.00,000.00,021.5,021.0,000.0,029.7,023.3,14.1,0000.0,0002.16,0007.80,0001.62
2024-02-19 19:11:00,SystemResetWarning,0827.4,4.99,000.00,021.5,021.1,000.0,029.7,023.3,13.9,0000.0,0002.16,0007.76,0001.63
2024-02-19 19:12:00,SystemResetWarning,0827.3,4.99,000.00,021.5,021.1,000.0,029.8,023.3,14.2,0000.0,0002.16,0007.75,0001.64
2024-02-19 19:13:00,SystemResetWarning,0827.3,5.00,000.00,021.5,021.1,000.0,029.8,023.3,14.3,0000.0,0002.16,0007.73,0001.67
2024-02-19 19:14:00,SystemResetWarning,0827.2,5.01,000.00,021.5,021.1,000.0,029.8,023.3,13.8,0000.0,0002.15,0005.59,0001.69
2024-02-19 19:15:00,SystemResetWarning,0827.3,5.00,000.00,021.5,021.1,000.0,029.8,023.3,14.0,0000.0,0002.10,0003.70,0001.72
2024-02-19 19:16:00,SystemResetWarning,0827.3,5.01,000.00,021.6,021.1,000.0,029.8,023.3,14.0,0000.0,0002.12,0003.32,0001.74
2024-02-19 19:17:00,SystemResetWarning,0827.3,4.99,000.00,021.6,021.1,000.0,029.8,023.4,14.2,0000.0,0002.13,0003.20,0001.76
2024-02-19 19:18:00,SystemResetWarning,0827.2,5.00,000.00,021.6,021.1,000.0,029.8,023.4,14.3,0000.0,0002.09,0003.03,0001.76
2024-02-19 19:19:00,SystemResetWarning,0827.2,4.99,000.00,021.6,021.1,000.0,029.9,023.4,14.4,0000.0,0002.13,0003.08,0001.78
2024-02-19 19:20:00,SystemResetWarning,0827.2,5.01,000.00,021.6,021.2,000.0,029.9,023.4,14.3,0000.0,0002.13,0003.37,0001.79
2024-02-19 19:21:00,SystemResetWarning,0827.2,5.01,000.00,021.6,021.2,000.0,029.9,023.4,13.9,0000.0,0002.19,0005.25,0001.80
2024-02-19 19:22:00,SystemResetWarning,0827.3,5.00,000.00,021.6,021.2,000.0,029.9,023.4,13.7,0000.0,0002.21,0005.36,0001.79
2024-02-19 19:23:00,SystemResetWarning,0827.2,4.99,000.00,021.6,021.2,000.0,029.9,023.4,13.8,0000.0,0002.26,0005.72,0001.79
2024-02-19 19:24:00,SystemResetWarning,0827.2,4.99,000.00,021.7,021.2,000.0,029.9,023.5,13.8,0000.0,0002.27,0005.88,0001.79
2024-02-19 19:25:00,SystemResetWarning,0827.2,5.00,000.00,021.7,021.2,000.0,029.9,023.5,13.8,0000.0,0002.23,0005.80,0001.77
2024-02-19 19:26:00,SystemResetWarning,0827.2,5.00,000.00,021.7,021.2,000.0,029.9,023.5,13.8,0000.0,0002.20,0005.78,0001.77
2024-02-19 19:27:00,SystemResetWarning,0827.2,5.00,000.00,021.7,021.3,000.0,029.9,023.5,13.7,0000.0,0002.22,0005.90,0001.78
2024-02-19 19:28:00,SystemResetWarning,0827.2,5.00,000.00,021.7,021.3,000.0,030.0,023.5,13.6,0000.0,0002.19,0005.82,0001.78
2024-02-19 19:29:00,SystemResetWarning,0827.1,5.01,000.00,021.7,021.3,000.0,030.0,023.5,13.6,0000.0,0002.21,0005.85,0001.79
2024-02-19 19:30:00,SystemResetWarning,0827.1,5.01,000.00,021.7,021.3,000.0,030.0,023.5,13.5,0000.0,0002.21,0005.99,0001.81
2024-02-19 19:31:00,SystemResetWarning,0827.1,5.00,000.00,021.8,021.3,000.0,030.0,023.6,13.8,0000.0,0002.21,0006.13,0001.83
2024-02-19 19:32:00,SystemResetWarning,0827.1,5.00,000.00,021.8,021.3,000.0,030.0,023.6,13.6,0000.0,0002.15,0003.95,0001.85
2024-02-19 19:33:00,SystemResetWarning,0827.1,5.00,000.00,021.8,021.4,000.0,030.0,023.6,13.5,0000.0,0002.17,0003.90,0001.86
2024-02-19 19:34:00,SystemResetWarning,0827.1,5.00,000.00,021.8,021.4,000.0,030.0,023.6,13.5,0000.0,0002.19,0003.69,0001.89
2024-02-19 19:35:00,SystemResetWarning,0827.2,5.01,000.00,021.8,021.4,000.0,030.1,023.6,13.7,0000.0,0002.21,0003.69,0001.90
2024-02-19 19:36:00,SystemResetWarning,0827.2,5.00,000.00,021.8,021.4,000.0,030.1,023.6,13.6,0000.0,0002.28,0003.85,0001.93
2024-02-19 19:37:00,SystemResetWarning,0827.1,5.00,000.00,021.8,021.4,000.0,030.1,023.7,13.5,0000.0,0002.38,0004.01,0001.95
2024-02-19 19:38:00,SystemResetWarning,0827.1,5.01,000.00,021.9,021.4,000.0,030.1,023.7,13.5,0000.0,0002.40,0004.34,0001.96
2024-02-19 19:39:00,SystemResetWarning,0827.1,5.01,000.00,021.9,021.4,000.0,030.1,023.7,13.3,0000.0,0002.45,0005.31,0001.97
2024-02-19 19:40:00,SystemResetWarning,0827.1,4.99,000.00,021.9,021.4,000.0,030.1,023.7,13.6,0000.0,0002.45,0005.72,0001.98
2024-02-19 19:41:00,SystemResetWarning,0827.1,4.99,000.00,021.9,021.5,000.0,030.1,023.7,13.5,0000.0,0002.49,0006.03,0001.98
2024-02-19 19:42:00,SystemResetWarning,0827.1,5.01,000.00,021.9,021.5,000.0,030.2,023.7,13.6,0000.0,0002.50,0005.87,0001.99
2024-02-19 19:43:00,SystemResetWarning,0827.1,5.01,000.00,021.9,021.5,000.0,030.2,023.7,13.8,0000.0,0002.55,0006.33,0002.01
2024-02-19 19:44:00,SystemResetWarning,0827.1,5.00,000.00,021.9,021.5,000.0,030.2,023.8,13.8,0000.0,0002.61,0006.48,0002.03
2024-02-19 19:45:00,SystemResetWarning,0827.1,4.99,000.00,022.0,021.5,000.0,030.2,023.8,14.0,0000.0,0002.65,0006.99,0002.05
2024-02-19 19:46:00,SystemResetWarning,0827.0,4.99,000.00,022.0,021.5,000.0,030.2,023.8,14.1,0000.0,0002.68,0007.80,0002.07
2024-02-19 19:47:00,SystemResetWarning,0827.0,5.00,000.00,022.0,021.5,000.0,030.2,023.8,14.3,0000.0,0002.71,0008.41,0002.10
2024-02-19 19:48:00,SystemResetWarning,0827.0,5.01,000.00,022.0,021.5,000.0,030.2,023.8,14.2,0000.0,0002.72,0008.85,0002.13
2024-02-19 19:49:00,SystemResetWarning,0827.1,5.00,000.00,022.0,021.5,000.0,030.3,023.8,14.0,0000.0,0002.70,0008.82,0002.15
2024-02-19 19:50:00,SystemResetWarning,0827.1,4.99,000.00,022.0,021.5,000.0,030.3,023.8,14.3,0000.0,0002.70,0008.37,0002.18
2024-02-19 19:51:00,SystemResetWarning,0827.0,5.00,000.00,022.0,021.5,000.0,030.3,023.8,13.9,0000.0,0002.77,0008.42,0002.22
2024-02-19 19:52:00,SystemResetWarning,0827.0,5.00,000.00,022.0,021.6,000.0,030.3,023.8,13.9,0000.0,0002.88,0008.49,0002.28
2024-02-19 19:53:00,SystemResetWarning,0827.0,5.00,000.00,022.0,021.6,000.0,030.3,023.9,14.0,0000.0,0002.92,0008.74,0002.32
2024-02-19 19:54:00,SystemResetWarning,0827.0,5.01,000.00,022.0,021.6,000.0,030.3,023.9,13.8,0000.0,0002.98,0008.84,0002.38
2024-02-19 19:55:00,SystemResetWarning,0827.0,5.01,000.00,022.1,021.6,000.0,030.3,023.9,14.1,0000.0,0002.98,0009.39,0002.44
2024-02-19 19:56:00,SystemResetWarning,0827.0,5.00,000.00,022.1,021.6,000.0,030.3,023.9,13.8,0000.0,0002.99,0009.52,0002.48
2024-02-19 19:57:00,SystemResetWarning,0827.0,4.98,000.00,022.1,021.6,000.0,030.3,023.9,13.4,0000.0,0003.01,0009.32,0002.53
2024-02-19 19:58:00,SystemResetWarning,0826.9,4.99,000.00,022.1,021.7,000.0,030.4,023.9,13.5,0000.0,0003.01,0009.04,0002.57
2024-02-19 19:59:00,SystemResetWarning,0826.9,5.01,000.00,022.1,021.7,000.0,030.4,023.9,14.2,0000.0,0003.05,0009.23,0002.60
